Hourly Data Report for October 25, 2016

All times are specified in Local Standard Time (LST). Add 1 hour to adjust for Daylight Saving Time where and when it is observed.

GJOA HAVEN A
NUNAVUT

68°38'08.000" N
95°51'01.000" W
46.90 m
2302337
71597
YHK

Download Data

Hourly Data (October 2016)
Hourly Data Report for October 25, 2016
Temp Definition
°C
Dew Point Temp Definition
°C
Rel Hum Definition
%
Wind Dir Definition
10's deg

Wind Spd Definition
km/h
Visibility Definition
km
Stn Press Definition
kPa
Hmdx Definition


Wind Chill Definition


Weather Definition


TIME
00:00 Legend Double Dagger -10.2 -11.0 94 35 17 16.1 102.37   -17 Snow
01:00 Legend Double Dagger -10.2 -11.0 94 36 17 16.1 102.34   -17 Snow
02:00 Legend Double Dagger -10.5 -11.4 93 35 17 16.1 102.33   -18 Snow
03:00 Legend Double Dagger -11.6 -12.7 92 35 18 16.1 102.31   -19 Snow
04:00 Legend Double Dagger -11.3 -12.2 93 35 17 14.5 102.27   -19 Snow
05:00 Legend Double Dagger -11.5 -12.4 93 34 15 8.1 102.26   -19 Snow
06:00 Legend Double Dagger -13.0 -14.2 91 34 13 2.8 102.24   -20 Fog
07:00 Legend Double Dagger -13.0 -14.0 92 32 18 1.6 102.20   -21 Snow
08:00 Legend Double Dagger -14.7 -16.0 90 34 21 3.2 102.17   -24 Fog
09:00 Legend Double Dagger -13.7 -14.9 91 34 21 1.2 102.14   -23 Fog
10:00 Legend Double Dagger -12.7 -13.9 91 32 11 1.6 102.12   -19 Fog
11:00 Legend Double Dagger -14.3 -15.6 90 30 15 11.3 102.10   -22 LegendNANA
12:00 Legend Double Dagger -13.2 -14.4 91 29 8 8.1 102.07   -18 Fog
13:00 Legend Double Dagger -13.5 -14.8 90 26 11 2.4 102.04   -20 Snow
14:00 Legend Double Dagger -14.1 -15.2 91 25 13 3.6 102.01   -21 Fog
15:00 Legend Double Dagger -13.3 -14.5 91 25 11 1.2 101.97   -20 Snow
16:00 Legend Double Dagger -12.2 -13.3 92 22 9 2.4 101.93   -17 Snow
17:00 Legend Double Dagger -10.7 -11.5 94 20 11 1.2 101.85   -16 Snow
18:00 Legend Double Dagger -8.9 -9.6 95 22 15 3.6 101.80   -15 Snow
19:00 Legend Double Dagger -7.8 -8.5 95 25 15 2.8 101.73   -14 Snow
20:00 Legend Double Dagger -9.0 -9.8 94 29 8 2.4 101.67   -13 Snow
21:00 Legend Double Dagger -9.4 -10.2 94 34 11 4.8 101.63   -15 Snow
22:00 Legend Double Dagger -9.4 -10.2 94 35 9 4.0 101.58   -14 Snow
23:00 Legend Double Dagger -9.7 -10.5 94 36 5 4.8 101.53   -13 Snow

Notes on Data Quality.

Legend

  • E = Estimated
  • M = Missing
  • NA = Not Available
  • ‡ = Partner data that is not subject to review by the National Climate Archives
Date modified: